Showing default

KUIPER-00144, 67133

Orbit data source: Space-Track

KUIPER-00144, 67133 is a payload satellite owned by Kuiper Systems (US) in LEO that was launched on Mon, 15 Dec 2025 UTC via an ATLAS V 551 launch vehicle from the Air Force Eastern Test Range (AFETR). Payload-class satellites include a variety of spacecraft equipped with specific instruments for various scientific and technological missions. These include communications satellites like Starlink; space stations such as the ISS; scientific satellites like the Hubble; Earth observation satellites from companies like Planet Labs, Umbra, and HawkEye 360; GPS; miniature CubeSats for education and research; and military/defense satellites.

Loading next visibility...
Identifier
67133, 2025-301A
Orbit
LEO
Country
Flag of USUS
Related business
Manufacturer
Kuiper Systems
Mission
Operational Commercial Communications
Bus & Motor
KUIPER, Unknown motor
Mass
~490 kg wet, ~490 kg dry
Launch date (UTC)
2025-12-15 (6 months ago)
Launch vehicle
ATLAS V 551
Launch site
Air Force Eastern Test Range (AFETR)
Object type
Payload
Rocket body
Debris
Shape & HBR
Box + 2 Pan, 3.4 m
Radar Cross Section
2.326 m², Large (>1 m²)

Expand to show TLE details & history
Last TLE update: 10 hours ago

TLE from 10 hours ago
0 KUIPER-00144
1 67133U 25301A   26171.41641730  .00002647  00000-0  37609-3 0  9991
2 67133  51.9030 321.3588 0000609 101.6797 258.4234 14.79928753 29088
Epoch: 2026-06-20T09:59Z
TLE epoch observation values (Epoch: 2026-06-20T09:59:38.454Z)
Latitude
-0.00001°
Longitude
-97.18278°
Altitude
630.382 km
Speed
7.544 km/s
True Right ascension
21h 25m 26s
True Declination
0° 00' 00"
Sunlit
Object was in full shadow at epoch
Visualization orbit readout
Latitude
Unknown
Longitude
Unknown
Altitude
Unknown
Speed
Unknown
Apparent Right ascension
Unknown
Apparent Declination
Unknown
Sunlit
N/A
Visualization observer readout
Local Sidereal Time
07:13:36
Azimuth
Unknown
Elevation
Unknown
Doppler factor
Unknown
Orbital elements
Apogee altitude
630.427 km
Perigee altitude
629.573 km
Semi-major axis
7,008.137 km
Eccentricity
0.00006
Inclination
51.903°
RAAN
321.3588°
Arg. of periapsis
101.6797°
True anomaly
258.41656°
Mean anomaly
258.4234°
Eccentric anomaly
258.41998°
Mean motion
3.69947 °/min
Orbital period
97.31 mins
BSTAR
0.00037609
Loading maneuver chart data...
Computing Atmospheric mass density...
Loading historical data...
Loading historical data...
Loading historical data...
Loading historical data...
Loading historical data...
Loading historical data...
Loading historical data...

Documentation

Showing up to 5 results
|